[[{"header":{"parameterUnit":"m.s-1","parameterCategory":1,"la1":30.2991,"la2":30.254,"lo1":-89.0895,"lo2":-89.0444,"dy":0.0017,"dx":0.0017,"nx":28,"ny":28,"refTime":"2024-12-13T09:00:00:Z","depth":0,"parameterNumber":2,"parameterNumberName":"U-component_of_WINDS"},"data":[0,0,0,0,0,0,0,0,0,0,0,0,0,0,0,0,0,0,0,0,0,0,0,0,0,0,0,0,0,0,0,0,0,0,0,0,0,0,0,0,0,0,0,0,0,0,0,0,0,0,0,0,0,0,0,0,0,0,-1.6861,-1.6861,0,-1.6895,-1.6896,-1.6896,-1.681,-1.6807,-1.6804,-1.6802,-1.6842,-1.6846,-1.6849,0,0,0,0,0,0,0,0,0,0,0,0,0,-1.6724,-1.6727,-1.6861,-1.6861,-1.6862,-1.6895,-1.6896,-1.6896,-1.681,-1.6807,-1.6803,-1.68,-1.6841,-1.6845,-1.6849,0,0,0,0,0,0,0,0,0,0,0,0,0,-1.6774,-1.6728,-1.6861,-1.6823,-1.682,-1.6895,-1.6896,-1.6896,-1.6811,-1.6807,-1.6803,-1.6799,-1.6839,-1.6845,-1.685,-1.6966,0,0,-1.6867,-1.6869,0,0,0,0,0,0,0,0,-1.6771,-1.6779,-1.6828,-1.6825,-1.6822,-1.6844,-1.6862,-1.692,-1.6812,-1.6814,-1.6801,-1.6797,-1.6846,-1.6851,-1.6867,-1.6968,-1.697,-1.6867,-1.687,-1.6873,-1.6874,0,0,0,0,0,0,0,-1.6768,-1.6777,-1.6875,-1.6829,-1.6825,-1.6805,-1.6808,-1.6873,-1.6853,-1.6814,-1.6808,-1.6813,-1.6844,-1.6862,-1.6867,-1.697,-1.6867,-1.6872,-1.6875,-1.6877,-1.7169,-1.7173,0,0,0,0,0,0,-1.6769,-1.6775,-1.6874,-1.6876,-1.6786,-1.6811,-1.6814,-1.6841,-1.6852,-1.685,-1.6816,-1.6808,-1.6854,-1.6861,-1.6868,-1.7006,-1.6873,-1.6878,-1.6881,-1.7165,-1.717,-1.7175,0,0,0,0,0,0,-1.6766,-1.6778,-1.6872,-1.6823,-1.6834,-1.6818,-1.6849,-1.6844,-1.6861,-1.6854,-1.685,-1.6838,-1.6851,-1.686,-1.6942,-1.7006,-1.688,-1.6885,-1.7159,-1.7166,-1.7173,-1.7282,0,0,0,0,0,0,-1.6762,-1.6778,-1.6821,-1.6825,-1.6837,-1.6945,-1.6853,-1.6848,-1.6871,-1.6861,-1.6873,-1.6871,-1.6849,-1.6934,-1.6948,-1.7011,-1.689,-1.7154,-1.7163,-1.717,-1.7273,-1.7292,-1.7308,0,0,0,0,0,-1.6758,-1.6851,-1.6824,-1.6836,-1.689,-1.6949,-1.6956,-1.6927,-1.6876,-1.692,-1.6915,-1.6871,-1.6996,-1.6944,-1.6958,-1.7024,-1.715,-1.716,-1.717,-1.7265,-1.7288,-1.7308,0,0,0,0,0,0,-1.6858,-1.6851,-1.6821,-1.6918,-1.6934,-1.6934,-1.6989,-1.6952,-1.6985,-1.6975,-1.6938,-1.6942,-1.7031,-1.7035,-1.6977,-1.7137,-1.7064,-1.7078,-1.7132,-1.7154,-1.7171,-1.717,-1.6894,0,0,0,0,0,-1.689,-1.6937,-1.693,-1.7016,-1.7026,-1.7006,-1.7031,-1.7006,-1.7023,-1.703,-1.7031,-1.705,-1.7093,-1.7123,-1.7163,-1.7271,-1.7274,-1.7324,-1.7342,-1.7356,-1.737,-1.7429,-1.7452,-1.7208,-1.7208,-1.7208,0,0,-1.696,-1.6962,-1.6995,-1.7037,-1.7046,-1.7098,-1.7013,-1.707,-1.7108,-1.7039,-1.7117,-1.7118,-1.7136,-1.7233,-1.7275,-1.7239,-1.7437,-1.7369,-1.7381,-1.7386,-1.7442,-1.7465,-1.7486,-1.7215,-1.7214,-1.7213,0,0,-1.7114,-1.7119,-1.7192,-1.7203,-1.7219,-1.7204,-1.7222,-1.7227,-1.7225,-1.7301,-1.7251,-1.7295,-1.7371,-1.7386,-1.7404,-1.7561,-1.7523,-1.7575,-1.7669,-1.7727,-1.7747,-1.7764,-1.7823,-1.7844,-1.7587,-1.7588,-1.7588,0,-1.7199,-1.7272,-1.7235,-1.7296,-1.7317,-1.7254,-1.7329,-1.7342,-1.737,-1.7387,-1.7344,-1.7438,-1.7446,-1.7546,-1.7584,-1.7599,-1.762,-1.7576,-1.7746,-1.7763,-1.7778,-1.7834,-1.7856,-1.7594,-1.7594,-1.7593,-1.7592,0,-1.7378,-1.7429,-1.7487,-1.7514,-1.7541,-1.7609,-1.7583,-1.7615,-1.7587,-1.7578,-1.7657,-1.7664,-1.7704,-1.7725,-1.77,-1.7822,-1.7799,-1.7752,-1.7679,-1.7809,-1.7861,-1.7882,-1.7604,-1.7601,-1.7599,-1.7598,0,0,-1.76,-1.7603,-1.7625,-1.7637,-1.7648,-1.7688,-1.7753,-1.779,-1.782,-1.784,-1.7895,-1.7959,-1.7916,-1.7936,-1.7911,-1.7962,-1.8089,-1.7909,-1.7909,-1.7945,-1.8227,-1.8265,-1.8291,-1.8061,-1.8065,-1.8068,-1.8227,0,-1.7753,-1.7864,-1.7831,-1.7943,-1.7991,-1.7931,-1.7987,-1.8001,-1.7993,-1.8034,-1.8025,-1.8073,-1.801,-1.8022,-1.8069,-1.8064,-1.8146,-1.8051,-1.8116,-1.8119,-1.8117,-1.8317,-1.8358,-1.8507,-1.8246,-1.825,-1.8252,0,-1.7949,-1.7976,-1.8092,-1.8095,-1.8114,-1.8165,-1.8197,-1.8236,-1.825,-1.8241,-1.8263,-1.8227,-1.8292,-1.8215,-1.8306,-1.8242,-1.8266,-1.8267,-1.8272,-1.8281,-1.8197,-1.8335,-1.8554,-1.8578,-1.8283,-1.8281,-1.8278,0,-1.8103,-1.8168,-1.8246,-1.8258,-1.8262,-1.83,-1.8304,-1.8313,-1.8338,-1.8366,-1.8382,-1.8417,-1.8438,-1.8467,-1.8442,-1.8388,-1.8538,-1.8458,-1.8535,-1.8536,-1.8573,-1.8572,-1.8803,-1.8581,-1.8581,-1.8581,-1.858,0,-1.8281,-1.8356,-1.8315,-1.8365,-1.8446,-1.8407,-1.849,-1.8487,-1.8495,-1.8544,-1.8492,-1.8539,-1.8501,-1.8545,-1.8526,-1.8605,-1.8614,-1.861,-1.8605,-1.8618,-1.8619,-1.8636,-1.8627,-1.8587,-1.8585,-1.8584,-1.8583,0,-1.847,-1.8445,-1.8527,-1.8523,-1.8524,-1.8585,-1.8582,-1.8628,-1.8614,-1.8676,-1.8688,-1.8669,-1.8718,-1.8694,-1.8745,-1.8732,-1.8836,-1.8815,-1.8831,-1.8828,-1.8907,-1.8901,-1.9161,-1.9194,-1.8947,-1.8949,-1.8951,0,-1.8587,-1.8643,-1.8644,-1.8672,-1.8679,-1.8724,-1.8748,-1.8711,-1.8739,-1.8759,-1.8803,-1.8846,-1.8879,-1.896,-1.8951,-1.899,-1.8972,-1.906,-1.8978,-1.8989,-1.8978,-1.8977,-1.8984,-1.9079,-1.9081,-1.9084,-1.9086,0,-1.88,-1.8784,-1.882,-1.8852,-1.8882,-1.8906,-1.8926,-1.8952,-1.8915,-1.8949,-1.8997,-1.9023,-1.9073,-1.9119,-1.9152,-1.9157,-1.9118,-1.911,-1.9131,-1.9147,-1.9156,-1.9155,-1.8881,-1.9106,-1.9104,-1.9103,-1.9101,-1.9101,-1.8959,-1.9006,-1.9014,-1.9056,-1.9066,-1.9085,-1.9128,-1.9119,-1.9158,-1.9196,-1.9171,-1.9229,-1.9241,-1.9281,-1.9292,-1.9337,-1.9303,-1.9331,-1.9339,-1.9348,-1.9361,-1.9144,-1.9342,-1.9342,-1.9341,-1.9341,-1.934,0,-1.9172,-1.9173,-1.9212,-1.924,-1.9274,-1.9228,-1.9247,-1.9279,-1.9329,-1.9343,-1.9376,-1.9432,-1.9474,-1.9468,-1.9507,-1.9545,-1.9527,-1.9557,-1.9556,-1.9558,-1.9387,-1.9368,-1.957,-1.957,-1.957,-1.957,-1.957,-1.957,-1.9287,-1.9365,-1.935,-1.9433,-1.9433,-1.9488,-1.9503,-1.9521,-1.9532,-1.9596,-1.963,-1.9624,-1.9631,-1.9669,-1.9707,-1.9704,-1.9723,-1.976,-1.9751,-1.9593,-1.957,-1.9549,-1.953,-1.9763,-1.9763,-1.9918,-1.992,-1.9921]},{"header":{"parameterUnit":"m.s-1","parameterCategory":1,"la1":30.2991,"la2":30.254,"lo1":-89.0895,"lo2":-89.0444,"dy":0.0017,"dx":0.0017,"nx":28,"ny":28,"refTime":"2024-12-13T09:00:00:Z","depth":0,"parameterNumber":3,"parameterNumberName":"V-component_of_WINDS"},"data":[0,0,0,0,0,0,0,0,0,0,0,0,0,0,0,0,0,0,0,0,0,0,0,0,0,0,0,0,0,0,0,0,0,0,0,0,0,0,0,0,0,0,0,0,0,0,0,0,0,0,0,0,0,0,0,0,0,0,-3.3472,-3.3474,0,-3.3576,-3.3577,-3.3578,-3.3571,-3.3569,-3.3568,-3.3566,-3.3669,-3.3673,-3.3677,0,0,0,0,0,0,0,0,0,0,0,0,0,-3.3266,-3.3269,-3.3472,-3.3474,-3.3475,-3.3576,-3.3577,-3.3578,-3.3571,-3.3569,-3.3567,-3.3565,-3.3667,-3.3672,-3.3677,0,0,0,0,0,0,0,0,0,0,0,0,0,-3.3361,-3.3271,-3.3472,-3.3483,-3.3485,-3.3575,-3.3577,-3.3579,-3.3571,-3.3569,-3.3567,-3.3565,-3.3666,-3.3672,-3.3678,-3.3762,0,0,-3.3697,-3.37,0,0,0,0,0,0,0,0,-3.3355,-3.3368,-3.348,-3.3483,-3.3485,-3.3558,-3.3542,-3.364,-3.3572,-3.3539,-3.3566,-3.3563,-3.3633,-3.3642,-3.3667,-3.3767,-3.3771,-3.3697,-3.3701,-3.3704,-3.3706,0,0,0,0,0,0,0,-3.3349,-3.3364,-3.3513,-3.3482,-3.3485,-3.3482,-3.3493,-3.356,-3.3597,-3.3541,-3.3541,-3.3554,-3.3634,-3.3661,-3.3669,-3.3773,-3.3697,-3.3703,-3.3707,-3.3709,-3.3947,-3.3949,0,0,0,0,0,0,-3.334,-3.3358,-3.351,-3.3516,-3.3413,-3.3488,-3.35,-3.3537,-3.3597,-3.3604,-3.3555,-3.3553,-3.3651,-3.3662,-3.3672,-3.3774,-3.3704,-3.371,-3.3713,-3.3944,-3.3947,-3.395,0,0,0,0,0,0,-3.3336,-3.3354,-3.3506,-3.3437,-3.3456,-3.3494,-3.3535,-3.354,-3.3566,-3.3607,-3.3614,-3.3575,-3.365,-3.3664,-3.374,-3.3777,-3.3713,-3.3718,-3.3941,-3.3945,-3.3949,-3.3978,0,0,0,0,0,0,-3.333,-3.3352,-3.3385,-3.3438,-3.346,-3.3572,-3.3538,-3.3544,-3.3577,-3.3575,-3.3628,-3.3634,-3.3649,-3.3731,-3.3746,-3.3785,-3.3723,-3.3938,-3.3943,-3.3947,-3.3974,-3.3983,-3.399,0,0,0,0,0,-3.3322,-3.3389,-3.3387,-3.3405,-3.3502,-3.3575,-3.3587,-3.3603,-3.3581,-3.3613,-3.364,-3.3633,-3.3771,-3.3739,-3.3756,-3.3797,-3.3936,-3.3941,-3.3947,-3.397,-3.3981,-3.399,0,0,0,0,0,0,-3.3338,-3.3396,-3.3394,-3.348,-3.3523,-3.3573,-3.3615,-3.3614,-3.3663,-3.3658,-3.3675,-3.3687,-3.3764,-3.3788,-3.3751,-3.3881,-3.385,-3.386,-3.3862,-3.3872,-3.388,-3.3872,-3.3728,0,0,0,0,0,-3.3351,-3.3406,-3.3454,-3.3525,-3.3546,-3.3577,-3.3609,-3.3618,-3.3662,-3.368,-3.3712,-3.3754,-3.3807,-3.3841,-3.3893,-3.3978,-3.3989,-3.4015,-3.4023,-3.403,-3.4037,-3.4083,-3.4094,-3.3969,-3.3969,-3.3969,0,0,-3.3379,-3.3418,-3.3451,-3.3529,-3.3563,-3.3618,-3.3592,-3.3652,-3.3692,-3.3689,-3.3762,-3.3788,-3.3836,-3.3917,-3.3954,-3.394,-3.4074,-3.4037,-3.4042,-3.4045,-3.409,-3.4102,-3.4112,-3.3973,-3.3972,-3.3972,0,0,-3.3458,-3.3494,-3.3557,-3.3592,-3.3644,-3.3664,-3.3679,-3.373,-3.3747,-3.3822,-3.382,-3.3869,-3.396,-3.3994,-3.4023,-3.4116,-3.4111,-3.4133,-3.4173,-3.4218,-3.4228,-3.4236,-3.4268,-3.4279,-3.414,-3.414,-3.4141,0,-3.3486,-3.357,-3.3588,-3.3649,-3.3682,-3.3683,-3.3746,-3.3778,-3.3844,-3.3867,-3.385,-3.3965,-3.3998,-3.4086,-3.4109,-3.4133,-3.415,-3.4125,-3.4225,-3.4234,-3.4242,-3.4272,-3.4284,-3.4143,-3.4142,-3.4142,-3.4142,0,-3.3601,-3.3659,-3.3703,-3.3768,-3.3807,-3.3868,-3.3894,-3.3931,-3.3938,-3.3959,-3.4035,-3.4075,-3.4133,-3.4156,-3.4162,-3.4245,-3.4234,-3.4222,-3.419,-3.4256,-3.4285,-3.4296,-3.4146,-3.4145,-3.4144,-3.4144,0,0,-3.369,-3.3765,-3.3781,-3.381,-3.3868,-3.3913,-3.3974,-3.4033,-3.4063,-3.4109,-3.4159,-3.4237,-3.4226,-3.4259,-3.427,-3.4309,-3.4378,-3.4291,-3.4293,-3.4304,-3.447,-3.4478,-3.4491,-3.4376,-3.4379,-3.438,-3.4466,0,-3.3773,-3.3882,-3.3901,-3.3995,-3.4049,-3.4051,-3.4104,-3.4145,-3.4167,-3.4215,-3.424,-3.4294,-3.4276,-3.4296,-3.4335,-3.4361,-3.4411,-3.4356,-3.4421,-3.4423,-3.4407,-3.4506,-3.4514,-3.4593,-3.4477,-3.4479,-3.4481,0,-3.3884,-3.3934,-3.4034,-3.4085,-3.4108,-3.4155,-3.421,-3.4257,-3.4303,-3.4316,-3.4354,-3.436,-3.4422,-3.4391,-3.4476,-3.4438,-3.4466,-3.4483,-3.4487,-3.4491,-3.4454,-3.4511,-3.4618,-3.4629,-3.4499,-3.4497,-3.4496,0,-3.3936,-3.4029,-3.41,-3.4125,-3.4187,-3.422,-3.4247,-3.4291,-3.4325,-3.4374,-3.4395,-3.445,-3.4479,-3.4521,-3.4541,-3.4516,-3.4625,-3.4595,-3.4636,-3.4635,-3.4656,-3.4654,-3.4767,-3.4679,-3.4678,-3.4678,-3.4678,0,-3.4026,-3.4086,-3.4124,-3.4168,-3.4236,-3.4257,-3.4323,-3.435,-3.4389,-3.4437,-3.4443,-3.4488,-3.4513,-3.4561,-3.4578,-3.4645,-3.4659,-3.467,-3.4673,-3.4668,-3.4666,-3.4685,-3.4679,-3.4681,-3.4681,-3.468,-3.4679,0,-3.4094,-3.4123,-3.42,-3.4253,-3.4268,-3.4315,-3.436,-3.4402,-3.4425,-3.4486,-3.4501,-3.4537,-3.4594,-3.4619,-3.4689,-3.47,-3.4777,-3.4777,-3.4761,-3.4761,-3.48,-3.4795,-3.4927,-3.4944,-3.4847,-3.4848,-3.4848,0,-3.4148,-3.4195,-3.4253,-3.4286,-3.4314,-3.4368,-3.4403,-3.4426,-3.4462,-3.4519,-3.4554,-3.4611,-3.4658,-3.475,-3.4781,-3.4835,-3.4835,-3.4878,-3.4843,-3.4836,-3.4833,-3.4829,-3.4833,-3.4883,-3.4884,-3.4885,-3.4885,0,-3.424,-3.4252,-3.4302,-3.4358,-3.44,-3.4445,-3.4489,-3.4515,-3.4545,-3.4585,-3.4645,-3.4681,-3.4754,-3.481,-3.4866,-3.4893,-3.4894,-3.4896,-3.4908,-3.4902,-3.489,-3.4895,-3.4775,-3.4892,-3.4892,-3.4891,-3.4891,-3.4891,-3.4301,-3.4342,-3.439,-3.4446,-3.4482,-3.4523,-3.4565,-3.4594,-3.4644,-3.4705,-3.4716,-3.4778,-3.4823,-3.4899,-3.4928,-3.4977,-3.4966,-3.4984,-3.4988,-3.4991,-3.4993,-3.4885,-3.4987,-3.4987,-3.4987,-3.4987,-3.4987,0,-3.4391,-3.4422,-3.4474,-3.4535,-3.4579,-3.4579,-3.4627,-3.4663,-3.4719,-3.4762,-3.4808,-3.4876,-3.4931,-3.4968,-3.5024,-3.5056,-3.5057,-3.5069,-3.5066,-3.5071,-3.5,-3.4983,-3.5067,-3.5067,-3.5067,-3.5067,-3.5067,-3.5067,-3.4442,-3.4512,-3.453,-3.4617,-3.4647,-3.4709,-3.4737,-3.4775,-3.4809,-3.4884,-3.4931,-3.4955,-3.4995,-3.5054,-3.5104,-3.5114,-3.5133,-3.5145,-3.5153,-3.5085,-3.5077,-3.5068,-3.5053,-3.515,-3.515,-3.5221,-3.5221,-3.5222]}]]